Temp
59 59 59 59 59 59 59 59 59 60 60 60 60 60 60 60 59 58 54 61 59 62 61 62 61 61 62 56 59 60 42 39 43 46 51 62 60 68 73 68 70 69 66 71 72
58 58 59 59 59 59 59 59 59 59 59 59 59 59 59 59 55 55 63 63 61 61 58 55 53 58 53 53 54 48 41 42 52 54 53 59 61 63 64 64 63 64 69 73 71
58 58 58 58 58 59 59 59 58 59 59 59 59 59 59 58 50 54 64 63 60 61 59 57 56 53 47 51 51 49 41 49 52 56 58 56 58 63 60 58 64 63 66 70 68
58 57 58 58 58 58 58 58 58 58 59 59 59 58 58 55 38 58 62 62 60 60 56 53 50 45 42 41 50 43 50 51 53 56 55 53 58 56 58 60 67 68 69 68 69
57 57 57 57 58 58 58 58 58 58 58 58 58 58 54 46 47 62 61 61 59 57 51 49 45 43 38 42 45 42 46 51 54 55 55 56 53 53 54 62 66 68 69 65 65
57 56 56 56 57 57 58 58 58 58 58 57 57 57 49 36 60 62 59 57 56 53 50 50 46 47 41 40 38 43 43 44 49 51 54 51 51 53 55 61 61 63 64 66 65
56 56 56 56 57 57 57 57 57 57 57 57 57 55 45 42 60 60 58 56 56 54 48 51 50 44 42 35 43 40 33 39 42 45 45 50 43 45 55 59 58 59 62 64 65
56 56 56 56 56 56 56 56 56 57 57 56 57 53 40 59 60 58 58 54 57 57 53 53 52 45 41 43 38 32 32 24 37 41 44 45 33 45 54 55 54 56 58 61 64
56 55 55 56 56 56 56 56 56 58 56 57 52 48 39 60 52 56 56 49 51 52 52 54 48 40 40 30 25 29 20 24 30 42 41 39 34 46 52 52 52 55 56 59 61
55 55 55 55 55 55 55 56 58 55 53 58 55 42 48 43 51 52 55 53 47 46 43 43 39 31 31 26 14 20 23 27 27 36 37 36 37 45 48 50 49 51 54 56 59
55 55 55 55 55 55 53 51 41 42 41 37 37 39 45 51 53 49 53 49 47 42 31 38 28 22 27 31 31 28 25 23 26 33 34 33 34 41 47 49 48 50 52 54 57
55 55 55 54 55 55 53 43 40 40 30 41 45 46 50 50 40 46 53 39 37 29 35 28 21 32 35 33 30 26 22 23 29 36 34 33 33 39 42 43 47 50 52 54 57
54 54 54 54 54 53 48 44 50 47 29 36 45 44 44 48 39 41 46 41 33 28 28 23 27 35 32 29 26 25 23 24 24 31 33 30 26 32 40 43 46 48 50 55 56
54 54 54 53 51 49 46 50 50 47 22 32 38 42 46 45 36 48 49 41 34 25 28 25 33 32 27 24 27 20 30 29 26 23 14 28 11 25 34 37 42 46 48 50 54
54 54 53 54 47 43 46 50 49 41 9 34 37 51 45 37 38 40 49 40 28 29 29 24 27 27 24 27 30 23 31 27 25 20 18 19 14 21 32 31 37 43 47 50 54
53 53 53 50 48 47 49 48 42 21 8 27 37 33 32 36 37 41 39 42 41 30 30 28 36 33 29 33 32 31 26 25 24 20 10 17 15 18 25 31 36 43 47 51 54
53 53 51 50 41 49 47 41 21 12 29 22 26 31 29 29 30 30 26 24 20 16 17 25 28 35 37 24 29 25 20 11 9 8 6 25 20 21 31 37 40 41 46 50 54
53 52 51 49 49 47 42 29 10 18 20 31 29 28 24 29 27 25 22 20 28 20 18 14 12 26 34 27 22 21 20 13 5 5 13 27 13 20 33 36 41 41 39 41 49
52 48 47 46 47 44 33 18 15 23 28 25 25 21 22 27 24 22 21 21 25 25 16 14 15 30 31 32 29 22 19 24 16 17 12 15 23 31 28 26 29 30 34 33 37
44 42 42 47 46 40 27 22 21 31 31 27 15 20 12 17 17 19 19 27 24 28 30 19 12 27 29 30 29 26 27 13 15 9 -1 10 16 12 17 19 24 26 28 30 31
42 33 41 47 43 33 20 20 25 33 33 20 17 17 19 17 19 17 20 28 32 26 28 23 17 17 23 15 19 19 16 20 19 13 9 8 10 19 19 20 19 23 26 28 28
39 27 41 43 28 27 22 25 32 29 33 28 27 22 17 18 16 19 20 26 35 31 20 23 17 10 15 25 29 25 18 19 11 8 15 16 9 22 20 21 21 22 25 27 27
33 33 41 39 21 24 28 26 29 27 27 21 20 25 22 14 15 19 23 33 33 28 23 22 16 10 11 18 23 17 22 19 17 16 10 12 10 22 22 21 22 21 23 25 26
33 26 33 34 33 25 23 23 22 30 26 29 25 28 19 12 21 17 21 28 32 30 35 29 15 14 10 13 19 16 18 18 15 12 11 11 11 16 18 18 20 21 22 22 23
32 28 30 24 26 26 27 24 22 21 27 29 19 21 18 15 16 16 22 24 28 32 28 24 13 15 16 17 19 17 16 16 12 12 11 11 11 14 18 18 19 21 21 21 21
31 28 28 27 30 26 27 24 24 26 24 23 19 23 23 17 19 15 20 22 21 24 24 22 15 15 11 14 20 19 17 17 15 13 13 15 14 19 22 20 18 19 19 18 19
36 37 31 30 27 24 25 26 25 29 29 31 28 24 20 23 27 29 28 26 25 21 20 20 19 11 4 15 18 14 12 14 15 15 14 10 14 19 17 17 17 18 19 18 18
MSLP
1024.50 1024.22 1023.73 1023.32 1022.78 1022.37 1021.83 1021.26 1020.82 1020.20 1019.62 1019.19 1018.70 1018.25 1017.69 1017.04 1016.40 1015.11 1013.80 1013.51 1013.83 1013.55 1013.19 1012.44 1011.87 1011.37 1011.31 1010.77 1010.59 1010.16 1009.86 1007.86 1006.35 1005.14 1002.44 1002.88 1002.75 1001.27 1000.68 1000.05 999.98 1000.34 1000.56 1000.87 1001.00
1024.64 1024.28 1023.75 1023.26 1022.80 1022.20 1021.62 1021.02 1020.48 1020.00 1019.40 1019.06 1018.59 1017.93 1017.46 1016.87 1015.96 1013.85 1013.23 1013.40 1013.91 1013.68 1013.25 1012.73 1012.00 1011.31 1010.82 1010.21 1009.99 1009.76 1008.34 1006.62 1004.76 1004.12 1003.71 1003.29 1002.87 1001.63 1001.59 1000.12 999.95 1000.29 1000.43 1000.89 1001.38
1024.62 1024.14 1023.67 1023.22 1022.60 1022.03 1021.42 1020.87 1020.29 1019.67 1019.14 1018.73 1018.20 1017.77 1017.37 1016.64 1015.18 1013.64 1013.55 1013.63 1014.08 1013.85 1013.60 1013.26 1012.71 1012.16 1011.27 1010.47 1008.95 1008.61 1007.53 1006.55 1005.30 1004.52 1004.26 1003.44 1002.40 1002.33 1001.57 1000.43 1000.16 1000.22 1000.69 1001.04 1001.17
1024.62 1024.22 1023.71 1023.09 1022.45 1021.81 1021.29 1020.63 1020.00 1019.24 1018.64 1018.27 1017.97 1017.48 1016.91 1016.28 1015.18 1013.86 1014.10 1014.09 1014.11 1013.96 1013.74 1013.31 1012.93 1012.30 1011.55 1010.39 1009.42 1008.85 1007.59 1006.47 1005.05 1004.54 1004.44 1003.68 1003.00 1002.40 1001.57 1000.61 1000.61 1000.14 1000.03 1000.27 1000.58
1024.59 1024.16 1023.71 1023.14 1022.43 1021.62 1020.94 1020.32 1019.68 1018.77 1018.13 1017.99 1017.75 1017.23 1016.70 1015.77 1014.59 1014.27 1014.20 1014.12 1014.03 1013.81 1013.54 1013.15 1012.86 1012.55 1011.25 1010.59 1009.84 1009.28 1007.68 1006.71 1005.70 1004.87 1004.27 1004.03 1003.10 1002.56 1001.64 1000.84 1000.64 1000.50 1000.25 1000.04 1000.20
1024.53 1024.08 1023.60 1023.01 1022.33 1021.56 1020.89 1020.17 1019.49 1018.71 1018.00 1017.82 1017.48 1017.24 1016.65 1015.94 1014.45 1014.38 1014.40 1014.36 1014.06 1013.96 1013.55 1013.24 1012.75 1012.43 1011.50 1011.07 1010.64 1009.84 1008.82 1007.46 1006.39 1005.02 1004.01 1003.71 1002.96 1003.07 1001.14 1001.48 1001.18 1000.65 1000.20 1000.17 1000.10
1024.60 1024.12 1023.60 1022.96 1022.19 1021.55 1020.81 1020.03 1019.31 1018.46 1017.84 1017.53 1017.41 1017.14 1016.62 1015.61 1014.85 1014.69 1014.51 1014.22 1014.10 1013.83 1013.45 1013.20 1013.06 1012.88 1012.52 1011.91 1011.19 1010.55 1009.67 1008.12 1006.81 1005.95 1004.52 1004.67 1002.56 1001.61 1001.39 1001.80 1000.99 1000.85 1000.42 1000.15 1000.15
1024.55 1023.99 1023.42 1022.85 1022.16 1021.45 1020.60 1019.63 1018.89 1018.28 1017.55 1017.24 1017.04 1016.63 1015.71 1014.97 1014.76 1014.62 1014.28 1014.18 1013.88 1013.32 1013.12 1013.01 1012.79 1012.56 1012.31 1012.12 1011.47 1011.25 1010.62 1008.66 1007.22 1006.56 1004.97 1005.19 1002.05 1002.37 1002.07 1001.61 1000.88 1000.75 1000.27 1000.00 999.76
1024.52 1023.96 1023.38 1022.73 1022.07 1021.25 1020.36 1019.35 1018.35 1017.68 1017.56 1016.73 1016.28 1016.21 1015.36 1014.67 1014.69 1014.53 1014.50 1014.06 1013.74 1013.40 1013.05 1012.75 1012.64 1012.18 1011.99 1011.83 1011.50 1011.10 1009.94 1009.00 1007.53 1006.86 1005.98 1004.49 1002.55 1002.34 1002.21 1001.41 1000.24 1000.22 1000.15 999.99 999.63
1024.45 1023.86 1023.24 1022.54 1021.80 1021.08 1020.16 1018.86 1017.38 1017.11 1017.98 1015.57 1015.96 1015.86 1015.14 1015.12 1014.68 1014.70 1014.23 1013.69 1013.14 1012.92 1012.35 1012.27 1011.77 1011.76 1011.70 1011.87 1011.03 1010.29 1009.61 1008.44 1007.35 1006.35 1005.63 1003.80 1002.81 1002.16 1001.49 1001.25 1000.04 1000.00 999.72 999.23 999.29
1024.36 1023.68 1022.95 1022.27 1021.62 1020.97 1020.10 1018.74 1018.78 1017.92 1019.16 1018.06 1017.52 1016.78 1015.48 1015.12 1014.97 1014.33 1013.29 1013.05 1012.77 1012.79 1012.23 1011.76 1011.63 1011.33 1011.02 1010.53 1010.26 1010.08 1009.58 1008.77 1008.21 1007.09 1005.55 1004.25 1003.14 1001.82 1001.06 999.76 999.78 999.45 999.48 998.72 998.48
1024.41 1023.72 1022.97 1022.35 1021.57 1020.87 1020.33 1020.18 1021.19 1021.65 1019.15 1017.67 1016.63 1016.16 1015.56 1015.30 1014.13 1013.61 1013.15 1013.18 1012.96 1012.47 1012.29 1012.08 1011.26 1010.26 1010.23 1009.96 1009.80 1009.63 1008.90 1007.92 1007.17 1006.33 1005.38 1004.55 1002.95 1002.61 1001.23 1000.23 999.78 999.07 998.21 998.04 997.81
1024.24 1023.69 1022.94 1022.14 1021.07 1020.60 1020.49 1021.15 1021.33 1021.29 1020.64 1017.69 1016.28 1015.86 1015.63 1015.20 1014.16 1013.33 1013.23 1013.12 1012.99 1012.51 1012.56 1012.38 1010.58 1010.27 1009.88 1009.36 1009.23 1008.43 1008.16 1007.37 1006.88 1006.02 1005.34 1004.90 1003.07 1002.25 1001.06 1000.07 999.65 998.91 998.64 997.88 996.99
1024.23 1023.58 1022.93 1022.28 1020.91 1021.13 1020.80 1021.18 1021.13 1021.16 1020.31 1017.58 1015.95 1015.79 1015.32 1014.84 1013.62 1013.20 1012.83 1013.29 1013.04 1012.59 1012.39 1011.51 1010.14 1009.57 1009.39 1008.95 1008.69 1007.47 1007.16 1007.00 1006.61 1006.61 1005.83 1005.56 1003.50 1002.33 1001.02 999.47 998.95 998.22 997.93 997.42 996.79
1024.18 1023.50 1022.87 1022.17 1021.76 1021.40 1021.53 1021.26 1020.99 1021.17 1020.15 1017.51 1016.11 1015.57 1015.84 1015.89 1014.89 1013.01 1013.00 1012.93 1012.67 1012.38 1012.77 1010.84 1010.13 1009.04 1008.53 1007.94 1008.01 1007.16 1006.73 1006.56 1006.61 1006.44 1006.38 1005.09 1004.71 1002.26 1001.03 999.12 998.10 997.57 997.11 996.54 996.18
1024.00 1023.44 1022.94 1022.32 1021.99 1021.93 1021.52 1021.15 1021.17 1021.21 1019.54 1017.93 1016.84 1016.36 1015.97 1015.52 1014.95 1013.88 1013.74 1013.14 1012.10 1012.04 1011.65 1011.00 1009.31 1008.21 1007.54 1007.50 1007.52 1007.20 1006.59 1006.30 1006.41 1006.48 1005.19 1003.91 1004.56 1001.21 999.84 998.27 997.57 997.06 996.43 996.19 995.58
1023.82 1023.09 1022.61 1022.56 1022.47 1022.05 1021.59 1021.05 1021.34 1020.79 1019.86 1019.04 1017.81 1017.20 1016.91 1015.79 1015.21 1014.87 1014.42 1013.59 1013.12 1012.80 1011.68 1010.10 1008.54 1007.51 1007.14 1007.36 1006.73 1006.90 1006.84 1006.32 1006.22 1005.78 1003.82 1002.53 1002.53 999.58 998.19 997.59 997.01 996.79 996.18 995.78 995.08
1023.53 1023.09 1022.52 1022.62 1022.64 1022.27 1021.73 1021.55 1021.43 1020.79 1020.45 1019.68 1018.98 1018.11 1017.48 1016.83 1015.96 1015.53 1014.96 1014.38 1013.51 1013.66 1012.90 1011.55 1008.21 1008.10 1007.57 1007.69 1007.28 1006.60 1006.36 1006.22 1005.44 1004.60 1003.12 1001.99 1000.79 1000.08 999.42 999.01 997.16 997.38 997.65 996.78 994.94
1023.47 1022.71 1022.13 1022.45 1022.59 1022.35 1022.24 1021.86 1021.43 1021.10 1020.87 1020.38 1019.43 1018.52 1018.20 1017.98 1017.98 1016.68 1015.80 1014.80 1013.91 1014.03 1014.09 1012.60 1010.22 1008.43 1007.73 1007.45 1007.64 1006.75 1006.55 1006.56 1005.25 1003.57 1003.67 1002.07 1000.37 999.68 1000.44 1000.42 1000.54 999.92 999.37 999.88 999.34
1023.59 1022.77 1022.22 1022.43 1022.54 1022.40 1022.63 1022.12 1021.56 1021.17 1021.00 1020.99 1020.73 1019.65 1019.25 1018.59 1018.44 1017.80 1016.18 1014.39 1014.19 1014.45 1014.32 1013.79 1011.31 1008.69 1007.99 1007.27 1007.33 1007.35 1007.13 1006.22 1005.70 1004.21 1003.48 1002.19 1002.04 1003.28 1003.21 1003.30 1003.10 1002.54 1001.74 1002.37 1001.98
1023.96 1023.35 1022.64 1022.47 1022.45 1022.54 1022.71 1022.34 1021.84 1021.35 1021.33 1021.33 1021.01 1020.71 1020.11 1019.53 1018.96 1018.39 1016.47 1014.50 1014.16 1014.39 1014.66 1013.99 1012.70 1009.89 1009.53 1008.07 1007.59 1007.43 1007.33 1007.66 1007.03 1005.91 1004.08 1003.62 1004.87 1005.65 1005.56 1005.54 1005.11 1004.85 1004.40 1004.01 1003.14
1023.93 1023.51 1022.53 1022.56 1022.99 1022.76 1022.57 1022.07 1021.87 1021.25 1021.19 1021.15 1020.93 1020.86 1020.57 1020.15 1019.26 1018.32 1016.43 1015.35 1014.45 1014.40 1013.83 1013.44 1012.72 1011.23 1009.83 1007.55 1007.60 1007.91 1008.51 1008.53 1007.73 1006.10 1005.30 1004.49 1006.55 1006.72 1006.86 1006.86 1006.47 1006.12 1005.66 1005.52 1005.50
1024.03 1023.28 1022.66 1022.59 1022.76 1022.43 1022.05 1021.92 1021.78 1021.41 1021.10 1021.16 1021.30 1020.90 1020.60 1020.58 1019.88 1017.82 1016.19 1014.74 1014.66 1014.41 1013.70 1013.13 1012.45 1011.28 1009.43 1008.55 1007.75 1008.38 1008.78 1008.89 1007.61 1007.41 1006.49 1006.33 1007.53 1007.80 1007.69 1007.44 1007.28 1007.02 1006.67 1006.44 1006.09
1024.28 1023.43 1022.44 1022.52 1022.25 1022.44 1022.06 1021.43 1021.24 1020.91 1020.84 1020.81 1020.69 1020.65 1020.57 1020.15 1019.86 1017.59 1016.00 1015.04 1014.34 1013.90 1013.03 1012.99 1012.65 1012.50 1011.66 1010.48 1009.71 1009.34 1009.43 1009.11 1008.23 1007.70 1007.60 1008.11 1008.75 1008.75 1008.88 1008.60 1008.24 1007.82 1007.59 1007.38 1007.21
1023.73 1022.68 1022.24 1022.16 1021.62 1021.59 1021.60 1021.15 1020.68 1020.68 1020.37 1020.47 1020.20 1020.20 1020.38 1019.65 1018.68 1017.15 1015.65 1014.83 1014.05 1013.23 1013.11 1013.09 1012.51 1012.17 1011.36 1010.53 1009.76 1009.75 1009.84 1009.77 1009.63 1009.42 1008.92 1009.62 1009.68 1009.94 1009.77 1009.95 1009.87 1009.72 1009.24 1008.82 1008.49
1022.70 1022.29 1022.15 1021.25 1020.99 1021.01 1020.74 1020.02 1019.80 1019.59 1019.86 1019.40 1019.31 1019.06 1019.20 1019.03 1018.65 1016.50 1015.95 1014.91 1014.39 1013.35 1013.28 1013.33 1012.31 1011.85 1010.75 1009.54 1009.49 1009.49 1009.72 1010.16 1010.50 1010.39 1010.16 1010.15 1010.46 1010.77 1010.38 1010.55 1010.29 1010.14 1009.70 1009.09 1008.96
1020.65 1020.54 1020.60 1019.40 1019.45 1019.78 1019.00 1018.67 1018.84 1018.80 1018.32 1017.88 1017.86 1017.77 1017.82 1017.18 1016.78 1015.86 1015.18 1014.09 1014.06 1014.02 1013.48 1013.21 1012.49 1012.15 1010.58 1009.55 1009.27 1009.74 1010.15 1010.38 1010.82 1011.47 1011.59 1011.39 1011.59 1011.18 1010.94 1011.03 1010.95 1010.59 1010.45 1010.42 1010.15
Wind_Speed
18 19 19 19 20 20 21 19 22 22 23 23 23 24 24 25 26 22 19 4 10 12 14 14 14 12 16 18 19 17 16 19 31 32 32 13 20 25 22 19 14 8 7 10 8
19 18 19 20 19 20 20 21 22 23 23 24 24 24 24 25 22 19 11 15 14 13 11 14 14 16 12 16 12 19 19 30 31 27 26 21 25 23 19 23 11 8 7 14 7
17 19 17 21 21 23 22 22 23 24 25 25 25 25 24 22 14 6 6 14 13 14 13 14 16 15 19 17 22 21 25 27 27 29 27 29 28 19 20 24 20 10 12 15 7
22 22 23 22 23 22 22 23 24 26 27 26 26 25 22 14 7 6 12 13 12 14 16 15 15 18 20 21 22 24 26 29 30 28 27 27 24 22 22 27 18 12 9 7 14
22 21 22 23 25 24 25 26 26 28 29 27 26 22 16 10 13 10 17 16 14 13 15 16 16 17 21 16 19 24 28 27 27 29 28 23 27 25 27 27 18 17 16 7 8
21 21 22 23 25 25 26 27 28 29 29 27 22 17 14 16 9 17 12 11 10 12 14 14 15 16 20 21 21 20 25 27 26 27 26 28 29 26 31 23 20 18 19 13 8
23 24 23 24 25 26 27 29 29 28 28 22 16 12 16 14 11 11 13 9 14 14 14 13 12 15 12 17 15 17 23 21 25 27 28 23 28 29 26 22 22 20 19 18 14
23 23 23 24 25 27 28 31 27 27 22 18 17 13 6 7 6 12 14 14 16 12 12 16 17 19 19 16 20 21 22 18 19 20 24 23 27 24 19 23 25 20 20 20 21
22 24 24 26 27 27 30 28 27 22 15 21 11 3 8 6 16 15 13 16 15 15 15 16 15 17 17 16 16 14 19 23 27 22 24 28 28 24 22 24 22 25 25 23 21
23 24 25 25 26 28 26 28 19 11 19 8 3 9 2 15 14 18 14 15 17 16 19 15 13 15 14 13 14 19 19 20 22 19 19 29 28 24 30 29 26 22 20 18 28
22 25 25 26 25 27 18 12 9 1 17 6 17 17 17 13 12 11 18 10 13 13 20 14 14 15 18 20 23 24 24 24 20 24 24 23 23 23 26 24 30 25 22 21 20
23 25 26 26 30 27 10 7 11 8 11 16 11 7 9 10 21 19 11 12 14 18 16 11 16 21 20 22 22 23 25 23 21 19 20 21 23 22 25 21 20 20 20 27 25
23 24 25 26 29 7 9 8 7 10 4 10 7 7 10 15 20 12 16 11 14 15 12 12 18 21 20 22 21 22 22 23 22 22 22 21 24 21 22 21 21 21 19 22 19
22 24 24 28 10 9 7 11 7 5 4 6 6 4 13 20 6 19 4 11 12 13 12 12 12 14 15 17 18 22 19 22 23 19 16 11 17 17 18 23 21 20 19 17 19
23 24 23 21 8 6 9 9 8 2 5 11 4 8 17 12 17 10 9 11 20 19 10 16 21 23 18 14 14 14 15 17 16 14 13 19 10 15 17 22 17 20 23 20 18
23 24 25 9 6 7 9 10 4 3 5 9 6 19 20 14 11 9 15 14 11 9 14 18 19 12 13 14 13 17 15 14 11 8 14 18 11 17 18 22 17 19 21 23 21
22 23 19 6 5 10 9 6 3 2 9 8 16 17 19 16 11 8 16 13 4 9 11 20 6 9 5 9 15 6 7 3 5 7 12 10 13 20 11 21 20 21 22 19 22
23 24 6 2 6 8 6 2 2 1 5 11 13 20 7 13 8 13 9 11 6 3 11 9 21 6 16 14 7 16 4 3 6 4 8 9 7 5 12 15 17 7 8 18 7
21 5 4 3 5 5 3 2 2 4 6 11 16 6 5 8 7 11 12 9 3 6 6 8 13 23 19 10 5 6 8 13 8 17 8 6 8 4 19 20 19 16 17 17 17
6 7 3 3 4 3 2 4 2 5 10 5 5 3 5 7 9 11 7 8 8 8 14 5 22 7 10 12 6 6 7 9 4 6 4 4 0 8 17 16 15 15 15 12 12
4 5 2 2 2 1 2 4 5 8 9 2 4 8 7 14 4 10 9 12 12 11 15 16 8 12 8 4 12 5 7 6 8 5 3 4 4 8 10 10 11 11 11 10 13
3 4 3 2 2 1 2 3 6 8 6 7 6 8 7 8 8 7 9 12 11 17 12 8 4 9 19 23 6 3 5 6 5 6 5 4 3 5 10 9 11 10 11 9 8
3 4 2 2 3 3 3 7 7 6 5 2 5 7 4 3 9 8 10 6 21 14 7 3 4 9 9 4 3 5 6 10 13 7 7 4 4 10 10 12 12 12 11 10 12
2 4 3 3 1 3 5 7 3 5 10 8 9 11 8 4 8 14 20 12 18 21 22 4 4 6 12 15 15 13 11 13 10 3 7 7 5 11 10 14 14 15 14 12 12
4 5 2 4 6 9 5 4 11 7 7 4 5 10 7 10 17 19 14 26 16 14 4 3 6 6 13 16 17 9 4 10 9 10 7 3 4 10 7 11 10 8 8 9 10
4 4 4 4 7 11 9 6 11 10 6 7 11 13 13 15 14 28 23 17 13 10 3 4 6 6 11 7 4 4 8 4 3 9 7 9 1 10 8 7 10 12 13 14 13
5 3 4 8 5 8 11 9 9 7 10 14 15 11 12 19 16 17 18 25 22 20 18 7 4 4 7 3 9 4 4 3 1 3 4 5 6 9 5 8 12 14 13 12 12
Wind_Direction
1 355 351 353 348 344 339 342 337 335 331 329 330 329 327 326 319 301 291 54 11 336 320 291 264 255 267 251 253 245 235 236 238 243 245 253 252 272 279 286 231 222 250 263 105
357 352 351 351 347 339 337 338 337 333 330 329 328 330 329 329 311 295 86 53 11 354 325 325 313 308 258 244 236 235 237 234 237 245 254 256 261 269 277 275 251 233 269 282 176
346 347 349 348 345 345 340 336 336 331 328 328 330 330 329 324 305 59 127 3 12 344 326 309 296 285 275 273 251 235 241 247 254 253 260 271 267 278 271 268 262 238 216 250 220
356 356 349 345 341 339 338 337 333 330 327 328 330 328 329 313 304 85 13 350 352 331 313 305 298 284 270 265 264 265 253 248 256 258 267 272 285 280 271 266 279 266 233 248 261
349 350 346 343 340 337 337 334 332 327 322 326 329 327 326 313 284 356 348 336 321 325 315 299 285 286 269 276 276 262 267 270 265 263 264 266 265 271 270 274 278 277 280 271 275
346 351 345 340 337 337 334 331 328 322 320 325 324 336 328 300 343 339 341 328 334 323 325 319 309 298 291 285 283 293 291 288 285 282 270 252 257 261 261 267 271 267 271 256 226
352 346 343 341 337 335 331 329 324 319 319 320 324 318 308 278 320 331 311 324 315 293 294 288 290 293 294 297 288 306 300 295 278 273 272 275 270 257 253 263 259 261 260 269 269
347 342 341 338 338 332 330 325 320 317 319 320 313 298 272 278 297 311 333 330 309 311 293 309 294 282 265 272 269 276 277 283 275 279 283 262 263 265 270 248 254 248 260 262 260
346 342 342 340 337 334 330 324 315 306 348 302 294 336 285 312 338 333 325 306 302 299 300 293 288 275 269 263 271 252 270 267 276 260 262 261 268 262 266 267 255 239 244 256 256
344 341 338 338 334 335 334 321 323 104 354 315 113 317 232 326 326 322 304 303 294 283 286 280 275 263 257 257 258 266 262 268 263 266 285 266 262 266 243 248 258 259 259 248 235
344 340 339 339 336 335 330 327 3 343 350 332 294 273 284 328 317 296 316 318 303 292 288 297 289 269 264 256 247 257 269 281 294 289 285 276 281 273 255 245 241 244 252 261 254
341 341 340 337 332 328 333 25 30 306 313 302 269 279 333 326 311 332 334 328 325 307 309 301 264 271 281 289 290 286 276 276 264 271 274 278 273 274 285 286 288 277 251 231 246
337 339 339 338 325 349 342 40 355 329 292 298 259 287 336 319 312 307 330 318 313 305 310 292 275 294 284 276 274 272 266 267 269 277 275 282 279 272 266 267 267 268 274 268 245
339 338 340 338 318 343 14 357 327 348 276 350 1 64 327 332 284 326 296 320 314 293 308 274 261 288 292 281 274 274 264 268 271 274 271 279 285 280 267 259 254 259 256 259 256
336 337 337 333 305 322 345 332 336 230 334 340 346 354 336 326 298 331 356 323 293 288 287 282 301 294 287 269 298 286 292 263 265 262 274 256 256 264 256 258 251 239 247 250 240
329 333 334 337 303 6 329 313 279 255 273 339 314 330 333 326 316 301 322 309 274 277 267 268 275 273 255 276 289 276 281 271 266 268 250 250 225 257 240 241 244 247 238 238 242
328 329 323 310 320 327 317 291 274 272 7 299 323 332 321 322 317 338 323 329 332 331 328 315 287 296 279 304 297 270 292 257 223 214 249 244 220 237 254 238 237 233 237 243 229
329 324 334 298 327 327 307 263 293 156 285 313 325 310 301 351 324 327 313 321 299 354 302 343 319 355 323 307 313 306 235 279 281 253 291 313 256 270 9 336 257 283 341 15 261
329 312 287 65 328 313 306 289 241 331 325 320 320 310 300 339 323 315 330 284 316 47 342 316 289 314 296 341 342 339 324 303 268 247 261 237 277 126 12 20 6 8 35 17 11
316 307 263 36 333 285 287 275 255 301 308 312 287 320 300 308 325 351 293 275 337 348 12 304 296 291 344 318 169 290 325 327 332 297 269 271 359 341 356 356 358 11 31 11 0
298 320 96 349 273 242 273 256 304 292 312 233 280 295 272 308 317 311 263 296 359 336 329 293 250 292 326 299 323 352 1 331 276 230 269 307 68 355 357 359 355 5 14 12 18
286 279 102 324 278 163 230 210 296 287 284 276 291 276 257 304 295 288 260 301 321 327 306 277 280 284 282 279 158 94 10 321 289 317 311 282 59 16 16 0 2 4 6 20 19
261 275 125 257 266 218 289 267 249 267 262 213 259 263 307 290 306 246 287 305 316 321 305 297 245 303 317 4 341 21 355 325 289 220 244 286 83 358 7 5 12 6 12 18 23
263 288 220 202 150 252 270 259 240 246 265 261 263 284 297 259 236 281 283 299 318 306 308 322 281 269 290 286 305 299 328 358 346 3 326 19 47 4 15 9 5 6 7 13 18
198 232 216 237 216 223 218 247 270 279 214 221 267 230 254 289 301 265 270 306 303 290 306 271 267 266 272 273 285 278 343 14 5 342 36 32 47 351 28 15 1 3 9 17 16
228 203 172 263 234 246 237 209 245 266 233 245 232 263 275 264 261 292 301 294 298 303 321 296 280 318 296 257 274 255 30 352 16 356 4 351 42 355 342 23 18 13 12 14 13
200 207 197 228 195 217 216 219 233 262 261 246 262 275 286 278 276 278 282 280 268 271 283 256 288 318 270 313 315 141 357 342 119 45 314 3 331 327 344 39 21 7 13 12 6